Weather Roundup
Issued by NWS Springfield, MO

Home | Current Version | Previous Version | Text Only | Print | Product List | Glossary On
Versions: 1 2 3 4 5 6 7 8 9 10 11 12 13 14 15 16 17 18 19 20 21 22 23 24 25 26 27 28 29 30 31 32 33 34 35 36 37 38 39 40 41 42 43 44 45 46 47 48 49 50
000
NZUS99 KSGF 281507
HRRSGF

HOURLY WEATHER
NATIONAL WEATHER SERVICE SPRINGFIELD MO
900 AM CST TUE FEB 28 2017

......SGF CWA......

CITY           SKY/WX    TMP DP  RH WIND       PRES   REMARKS
SPRINGFIELD    CLOUDY    65  60  84 S20       29.81F
JOPLIN         CLOUDY    69  63  81 S21G35    29.78S
WEST PLAINS    CLOUDY    62  59  90 SW13G21   29.92R
ROLLA          CLOUDY    62  58  86 S14       29.82F
OSAGE BEACH    CLOUDY    65  58  78 S14G22    29.79F
BRANSON        CLOUDY    66  59  77 S10G25    29.87F

......SURROUNDING SGF CWA......

CITY           SKY/WX    TMP DP  RH WIND       PRES   REMARKS
CHANUTE        CLOUDY    66  59  78 S26G35    29.72S
PARSONS        CLOUDY    66  61  84 S14G22    29.76S
COFFEYVILLE    CLOUDY    65  61  87 S16       29.76S
EMPORIA        CLOUDY    64  56  75 SW21G29   29.68R
GROVE OK       CLOUDY    70  63  78 S18G28    29.83R
ROGERS AR      CLOUDY    66  61  84 S24       29.86F
SILOAM SPRINGS CLOUDY    66  61  82 S22       29.86S
HARRISON AR    CLOUDY    65  60  84 S12G22    29.88F
NEAR YELLVILLE PTSUNNY   66  57  72 S10G20    29.87S

......KANSAS AND MISSOURI......

CITY           SKY/WX    TMP DP  RH WIND       PRES   REMARKS
KANSAS CTY INT CLOUDY    64  58  80 S17       29.67F
DOWNTOWN KC    CLOUDY    65  58  78 S13       29.67F
COLUMBIA       CLOUDY    63  58  83 S20G26    29.78S
SEDALIA        CLOUDY    66  59  78 S15       29.75F
ST JOSEPH      CLOUDY    63  60  90 SW13      29.64F
ST LOUIS       CLOUDY    63  56  78 S12       29.83F
SPIRIT OF STL  CLOUDY    62  57  83 SW9       29.82F
KIRKSVILLE     CLOUDY    63  57  81 SW14G28   29.70S
WICHITA        CLOUDY    55  47  74 SW8       29.72R
TOPEKA         MOSUNNY   62  60  93 S9        29.65F
OLATHE         CLOUDY    63  59  87 S18G25    29.69F

......TENNESSEE......

CITY           SKY/WX    TMP DP  RH WIND       PRES   REMARKS
MEMPHIS        LGT RAIN  65  64  97 S12       30.02R
NASHVILLE      CLOUDY    59  56  89 S12       30.09S

......ARKANSAS.......

CITY           SKY/WX    TMP DP  RH WIND       PRES   REMARKS
FAYETTEVILLE   CLOUDY    65  63  93 S15       29.88F FOG
FT SMITH       CLOUDY    70  62  76 S10       29.90R
LITTLE ROCK    CLOUDY    65  65 100 S12       29.97R FOG

......OKLAHOMA.......

CITY           SKY/WX    TMP DP  RH WIND       PRES   REMARKS
TULSA          CLOUDY    69  63  81 S15G29    29.79R
PONCA CITY     CLOUDY    63  57  81 S9        29.74F
MCALESTER      CLOUDY    71  62  73 S14G25    29.88S HAZE
OKLAHOMA CITY  PTSUNNY   63  59  87 S15       29.80S FOG

......IOWA............

CITY           SKY/WX    TMP DP  RH WIND       PRES   REMARKS
DES MOINES     CLOUDY    56  51  84 SW5       29.61R
QUAD CITIES    PTSUNNY   56  51  84 S15       29.70F

......ILLINOIS........

CITY           SKY/WX    TMP DP  RH WIND       PRES   REMARKS
QUINCY         CLOUDY    59  54  83 S16       29.74F
CHICAGO        CLOUDY    53  48  83 S16       29.80F




USA.gov is the U.S. government's official web portal to all federal, state and local government web resources and services.